Home   Weather   Alpena   Past weeks

Flag for USA Past Weather in Alpena, Michigan, USA — Yesterday and Last 2 Weeks

Now
34 °F

Overcast.


Feels Like: 34 °F
Forecast: 32 / 39 °F
Wind: No wind

Location: Alpena County Regional Airport

Current Time: Dec 4, 2016 at 9:19:57 am

Latest Report: Dec 4, 2016 at 8:54 am


Visibility: 10 mi

Pressure: 30.22 "Hg

Humidity: 92%

Dew Point: 32 °F

Location of AlpenaLocation

Past Weather in Alpena — Graph

°F

Alpena Temperature Yesterday

Maximum temperature yesterday: 41 °F (at 1:54 pm)
Minimum temperature yesterday: 35 °F (at 8:54 pm)
Average temperature yesterday: 37 °F

High & Low Weather Summary for the Past Weeks

 TemperatureHumidityPressure
High57 °F (Nov 29, 1:54 pm)97% (Nov 24, 6:54 pm)30.39 "Hg (Nov 24, 6:54 pm)
Low17 °F (Nov 23, 3:54 am)46% (Nov 29, 1:54 pm)29.26 "Hg (Nov 29, 4:54 am)
Average36 °F80%29.99 "Hg
* Reported Nov 19 9:02 am — Dec 4 8:01 am, Alpena, Weather by CustomWeather, © 2016

Note: Actual official high and low records may vary slightly from our data, if they occured in-between our weather recording intervals... More about our weather records

Advertising

Alpena Weather History for the Previous 24 Hours

Scroll right to see more
 ConditionsComfort  
Time TempWeatherWind HumidityBarometerVisibility
8:01 am
Sun, Dec 4
33 °FCloudy.No wind92%30.21 "Hg10 mi
6:54 am34 °FOvercast.No wind88%30.24 "Hg10 mi
5:54 am34 °FOvercast.5 mph88%30.24 "Hg10 mi
4:54 am34 °FOvercast.3 mph88%30.25 "Hg10 mi
3:54 am35 °FOvercast.3 mph85%30.25 "Hg10 mi
2:54 am34 °FOvercast.No wind85%30.27 "Hg10 mi
1:54 am34 °FOvercast.No wind85%30.27 "Hg10 mi
12:54 am34 °FOvercast.No wind85%30.27 "Hg10 mi
11:54 pm
Sat, Dec 3
35 °FOvercast.No wind82%30.28 "Hg10 mi
10:54 pm35 °FOvercast.3 mph85%30.28 "Hg10 mi
9:54 pm36 °FOvercast.No wind82%30.27 "Hg10 mi
8:54 pm35 °FOvercast.No wind85%30.27 "Hg10 mi
7:54 pm36 °FOvercast.No wind82%30.27 "Hg10 mi
6:54 pm37 °FOvercast.No wind79%30.27 "Hg10 mi
5:54 pm37 °FOvercast.No wind76%30.29 "Hg10 mi
4:54 pm39 °FOvercast.No wind65%30.28 "Hg10 mi
3:54 pm40 °FOvercast.3 mph60%30.27 "Hg10 mi
2:54 pm40 °FOvercast.7 mph63%30.24 "Hg10 mi
1:54 pm41 °FOvercast.8 mph65%30.23 "Hg10 mi
12:54 pm40 °FMore clouds than sun.5 mph70%30.23 "Hg10 mi
11:54 am39 °FOvercast.7 mph73%30.25 "Hg10 mi
10:54 am38 °FMostly cloudy.6 mph76%30.27 "Hg10 mi
9:54 am37 °FMore clouds than sun.6 mph82%30.27 "Hg10 mi
Weather by CustomWeather, © 2016

See weather overviewHow to use our weather pages